1990-01-01 03:00:00,1.20,-8.60,4.20
1990-01-01 06:00:00,1.20,-27.70,7.90
1990-01-01 09:00:00,1.20,-51.10,2.40
1990-01-01 12:00:00,2.10,-41.70,7.00
1990-01-01 15:00:00,2.00,-30.10,8.50
1990-01-01 18:00:00,1.20,-27.00,4.40
1990-01-01 21:00:00,1.10,-16.40,4.60
1990-01-02 00:00:00,1.20,-30.40,11.70
1990-01-02 03:00:00,1.20,-23.50,21.50
1990-01-02 06:00:00,1.20,-5.70,4.80
1990-01-02 09:00:00,1.20,-25.50,13.70
1990-01-02 12:00:00,2.90,-46.20,1.70
1990-01-02 15:00:00,2.40,-43.70,0.60
1990-01-02 18:00:00,1.30,-42.90,0.50
1990-01-02 21:00:00,1.40,-41.90,0.60
1990-01-03 00:00:00,1.40,-41.30,0.60
1990-01-03 03:00:00,1.40,-42.40,1.20
1990-01-03 06:00:00,1.40,-42.20,1.50
1990-01-03 09:00:00,1.30,-40.80,0.60
1990-01-03 12:00:00,3.20,-39.10,0.70
1990-01-03 15:00:00,2.60,-36.70,1.00
1990-01-03 18:00:00,1.30,-34.50,1.20
1990-01-03 21:00:00,1.40,-35.40,0.80
1990-01-04 00:00:00,1.20,-36.20,0.90
1990-01-04 03:00:00,1.20,-23.30,7.60
1990-01-04 06:00:00,1.20,-24.30,6.10
1990-01-04 09:00:00,1.20,-31.40,4.30
1990-01-04 12:00:00,2.40,-24.90,7.10
1990-01-04 15:00:00,2.20,-28.40,5.80
1990-01-04 18:00:00,1.20,-25.60,9.00
1990-01-04 21:00:00,1.40,-31.90,9.30
1990-01-05 00:00:00,1.30,-14.90,16.10
1990-01-05 03:00:00,1.30,-0.60,1.30
1990-01-05 06:00:00,1.30,-0.80,1.90
1990-01-05 09:00:00,1.30,0.20,0.50
1990-01-05 12:00:00,2.10,-0.30,0.60
1990-01-05 15:00:00,1.90,-0.30,0.80
1990-01-05 18:00:00,1.30,-2.40,2.20
1990-01-05 21:00:00,1.40,-9.80,5.90
1990-01-06 00:00:00,1.30,-8.90,5.30
1990-01-06 03:00:00,1.30,-3.60,3.00
1990-01-06 06:00:00,1.30,-3.80,1.70
1990-01-06 09:00:00,1.30,-12.30,5.80
1990-01-06 12:00:00,3.10,-16.70,9.70
1990-01-06 15:00:00,2.40,-23.00,8.40
1990-01-06 18:00:00,1.40,-32.40,9.00
1990-01-06 21:00:00,1.30,-33.40,6.20
1990-01-07 00:00:00,1.30,-32.20,4.70
1990-01-07 03:00:00,1.20,-16.00,8.10
1990-01-07 06:00:00,1.30,-15.50,4.10
1990-01-07 09:00:00,1.30,1.80,2.80
1990-01-07 12:00:00,2.00,0.60,1.10
1990-01-07 15:00:00,2.10,-4.70,2.90
1990-01-07 18:00:00,1.30,-13.90,4.80
1990-01-07 21:00:00,1.30,-17.80,4.90
1990-01-08 00:00:00,1.40,-25.80,7.80
1990-01-08 03:00:00,1.40,-16.50,11.50
1990-01-08 06:00:00,1.40,-0.40,1.00
1990-01-08 09:00:00,1.40,-6.60,5.40
1990-01-08 12:00:00,2.90,-17.60,12.10
1990-01-08 15:00:00,2.40,-14.60,10.50
1990-01-08 18:00:00,1.10,-31.40,12.70
1990-01-08 21:00:00,1.30,-16.80,4.40
1990-01-09 00:00:00,1.20,-9.40,8.60
1990-01-09 03:00:00,1.30,-4.20,2.50
1990-01-09 06:00:00,1.30,-12.20,9.40
1990-01-09 09:00:00,1.30,-26.00,8.90
1990-01-09 12:00:00,5.10,-16.00,2.40
1990-01-09 15:00:00,3.60,-3.20,3.10
1990-01-09 18:00:00,1.10,-0.20,0.60
1990-01-09 21:00:00,1.10,0.10,0.60
1990-01-10 00:00:00,1.20,0.00,2.00
1990-01-10 03:00:00,1.20,-4.90,4.10
1990-01-10 06:00:00,1.20,-2.60,3.10
1990-01-10 09:00:00,1.20,-2.20,3.10
1990-01-10 12:00:00,2.60,-4.80,3.60
1990-01-10 15:00:00,2.20,-1.00,0.40
1990-01-10 18:00:00,1.20,-0.60,0.70
1990-01-10 21:00:00,1.30,-1.00,0.60
1990-01-11 00:00:00,1.30,-0.60,0.40
1990-01-11 03:00:00,1.20,-0.30,0.30
1990-01-11 06:00:00,1.20,-0.60,0.40
1990-01-11 09:00:00,1.40,-0.90,0.70
1990-01-11 12:00:00,1.90,-1.60,1.60
1990-01-11 15:00:00,1.80,-0.70,1.60
1990-01-11 18:00:00,1.20,-0.60,0.30
1990-01-11 21:00:00,1.20,-0.70,0.30
1990-01-12 00:00:00,1.20,-0.90,0.20
1990-01-12 03:00:00,1.20,-1.30,1.10
1990-01-12 06:00:00,1.40,-2.50,1.30
1990-01-12 09:00:00,1.40,-2.70,0.90
1990-01-12 12:00:00,2.20,-2.60,0.70
1990-01-12 15:00:00,2.00,-1.80,0.80
1990-01-12 18:00:00,1.20,-0.40,0.70
1990-01-12 21:00:00,1.20,-0.30,0.50
1990-01-13 00:00:00,1.20,-0.30,0.20
1990-01-13 03:00:00,1.20,-1.20,0.20
1990-01-13 06:00:00,1.20,-1.30,0.30
1990-01-13 09:00:00,1.20,-2.00,0.30
1990-01-13 12:00:00,3.30,-1.90,0.20
1990-01-13 15:00:00,3.10,-2.20,0.30
1990-01-13 18:00:00,1.30,-6.10,2.30
1990-01-13 21:00:00,1.20,-8.10,4.70
1990-01-14 00:00:00,1.20,-2.80,3.10
1990-01-14 03:00:00,1.20,-1.00,0.40
1990-01-14 06:00:00,1.30,-0.80,0.50
1990-01-14 09:00:00,1.30,-0.50,0.80
1990-01-14 12:00:00,2.50,-1.40,1.90
1990-01-14 15:00:00,2.40,-1.80,1.50
1990-01-14 18:00:00,1.20,-1.10,3.20
1990-01-14 21:00:00,1.20,-1.90,3.30
1990-01-15 00:00:00,1.20,-0.60,3.60
1990-01-15 03:00:00,1.30,-2.40,2.20
1990-01-15 06:00:00,1.40,-0.10,0.90
1990-01-15 09:00:00,1.40,0.40,0.70
1990-01-15 12:00:00,2.90,-0.60,0.50
1990-01-15 15:00:00,2.40,-0.80,0.70
1990-01-15 18:00:00,1.40,-1.00,0.50
1990-01-15 21:00:00,1.40,-1.60,0.30
1990-01-16 00:00:00,1.40,-2.50,0.60
1990-01-16 03:00:00,1.40,-2.50,0.80
1990-01-16 06:00:00,1.40,-1.20,0.80
1990-01-16 09:00:00,1.40,-0.20,0.60
1990-01-16 12:00:00,5.90,1.20,2.00
1990-01-16 15:00:00,5.70,1.30,2.10
1990-01-16 18:00:00,1.30,-1.30,0.50
1990-01-16 21:00:00,1.30,0.20,1.30
1990-01-17 00:00:00,1.40,0.50,0.90
1990-01-17 03:00:00,1.40,1.80,2.40
1990-01-17 06:00:00,1.30,3.90,1.90
1990-01-17 09:00:00,1.30,-0.30,2.10
1990-01-17 12:00:00,3.80,-1.10,2.80
1990-01-17 15:00:00,3.40,-0.30,1.80
1990-01-17 18:00:00,1.40,0.10,1.00
1990-01-17 21:00:00,1.40,0.10,2.30
1990-01-18 00:00:00,1.30,1.20,2.60
1990-01-18 03:00:00,1.20,3.60,2.20
1990-01-18 06:00:00,1.20,3.70,2.20
1990-01-18 09:00:00,1.20,4.80,2.20
1990-01-18 12:00:00,4.90,2.90,2.40
1990-01-18 15:00:00,3.60,2.50,2.30
1990-01-18 18:00:00,1.30,4.10,3.00
1990-01-18 21:00:00,1.20,5.20,2.70
1990-01-19 00:00:00,1.40,3.80,6.20
1990-01-19 03:00:00,1.30,-14.80,4.90
1990-01-19 06:00:00,1.20,-19.30,14.60
1990-01-19 09:00:00,1.30,-21.40,8.70
1990-01-19 12:00:00,8.00,-31.10,14.90
1990-01-19 15:00:00,6.60,-38.90,1.40
1990-01-19 18:00:00,1.40,-35.60,1.50
1990-01-19 21:00:00,1.40,-30.70,2.90
1990-01-20 00:00:00,1.40,-19.60,7.40
1990-01-20 03:00:00,1.20,-8.70,5.40
1990-01-20 06:00:00,1.30,-1.70,1.20
1990-01-20 09:00:00,1.30,-2.90,1.40
1990-01-20 12:00:00,4.80,-0.40,0.40
1990-01-20 15:00:00,4.80,1.20,0.80
1990-01-20 18:00:00,1.20,1.20,0.70
1990-01-20 21:00:00,1.20,0.10,0.30
1990-01-21 00:00:00,1.20,2.00,2.20
1990-01-21 03:00:00,1.20,5.80,1.20
1990-01-21 06:00:00,1.40,5.10,2.00
1990-01-21 09:00:00,1.30,-2.90,12.70
1990-01-21 12:00:00,8.70,-45.70,7.80
1990-01-21 15:00:00,9.40,-28.20,6.60
1990-01-21 18:00:00,1.40,-29.80,3.60
1990-01-21 21:00:00,1.30,-37.20,7.70
1990-01-22 00:00:00,1.30,-42.00,4.70
1990-01-22 03:00:00,1.30,-37.10,0.80
1990-01-22 06:00:00,1.20,-36.40,2.30
1990-01-22 09:00:00,1.40,-34.70,1.00
1990-01-22 12:00:00,9.20,-31.10,2.70
1990-01-22 15:00:00,7.50,-9.60,11.70
1990-01-22 18:00:00,1.20,3.00,1.00
1990-01-22 21:00:00,1.30,-0.20,1.80
1990-01-23 00:00:00,1.30,-0.30,0.40
1990-01-23 03:00:00,1.20,-0.60,0.40
1990-01-23 06:00:00,1.20,-0.60,0.30
1990-01-23 09:00:00,1.30,-0.20,1.60
1990-01-23 12:00:00,4.50,-3.50,2.70
1990-01-23 15:00:00,5.60,-3.90,3.70
1990-01-23 18:00:00,1.30,0.00,2.00
1990-01-23 21:00:00,1.30,-0.10,2.90
1990-01-24 00:00:00,1.30,-0.20,0.70
1990-01-24 03:00:00,1.30,0.30,2.20
1990-01-24 06:00:00,1.20,-0.20,0.90
1990-01-24 09:00:00,1.30,-0.50,2.90
1990-01-24 12:00:00,4.30,-4.00,3.10
1990-01-24 15:00:00,4.30,-5.00,2.40
1990-01-24 18:00:00,1.30,-0.40,2.20
1990-01-24 21:00:00,1.30,-1.00,1.60
1990-01-25 00:00:00,1.30,-0.10,0.80
1990-01-25 03:00:00,1.30,-0.30,1.20
1990-01-25 06:00:00,1.20,0.00,2.60
1990-01-25 09:00:00,1.20,-0.50,2.40
1990-01-25 12:00:00,3.90,-4.20,3.80
1990-01-25 15:00:00,5.80,-5.90,3.90
1990-01-25 18:00:00,1.30,2.10,4.30
1990-01-25 21:00:00,1.30,5.80,3.60
1990-01-26 00:00:00,1.30,1.10,1.20
1990-01-26 03:00:00,1.30,0.60,0.80
1990-01-26 06:00:00,1.20,-0.10,0.50
1990-01-26 09:00:00,1.20,0.90,0.60
1990-01-26 12:00:00,10.70,2.30,4.20
1990-01-26 15:00:00,6.20,2.70,3.70
1990-01-26 18:00:00,1.30,2.20,1.50
1990-01-26 21:00:00,1.20,3.40,1.70
1990-01-27 00:00:00,1.40,9.10,3.60
1990-01-27 03:00:00,1.30,6.80,3.40
1990-01-27 06:00:00,1.30,2.00,2.00
1990-01-27 09:00:00,1.20,0.10,0.50
1990-01-27 12:00:00,5.10,5.60,2.40
1990-01-27 15:00:00,5.70,5.40,1.80
1990-01-27 18:00:00,1.30,-4.90,6.50
1990-01-27 21:00:00,1.20,-20.50,4.70
1990-01-28 00:00:00,1.40,-41.10,9.00
1990-01-28 03:00:00,1.20,-49.00,2.70
1990-01-28 06:00:00,1.20,-43.00,3.60
1990-01-28 09:00:00,1.40,-41.70,4.60
1990-01-28 12:00:00,27.10,-39.00,5.40
1990-01-28 15:00:00,16.10,-45.50,8.60
1990-01-28 18:00:00,1.30,-52.10,1.90
1990-01-28 21:00:00,1.30,-41.70,2.50
1990-01-29 00:00:00,1.30,-38.40,1.00
1990-01-29 03:00:00,1.40,-24.60,13.60
1990-01-29 06:00:00,1.30,-0.20,1.70
1990-01-29 09:00:00,1.50,-3.30,6.40
1990-01-29 12:00:00,13.30,1.00,1.00
1990-01-29 15:00:00,12.70,-2.60,5.20
1990-01-29 18:00:00,1.40,-8.70,4.20
1990-01-29 21:00:00,1.20,-17.10,4.80
1990-01-30 00:00:00,1.30,-16.50,2.00
1990-01-30 03:00:00,1.40,-3.80,2.20
1990-01-30 06:00:00,1.40,-7.10,5.60
1990-01-30 09:00:00,2.00,-19.60,3.50
1990-01-30 12:00:00,29.90,-10.20,7.00
1990-01-30 15:00:00,13.90,-19.10,1.90
1990-01-30 18:00:00,1.60,-3.90,6.70
1990-01-30 21:00:00,1.20,0.60,0.40
1990-01-31 00:00:00,1.20,0.30,0.90
1990-01-31 03:00:00,1.10,-0.20,0.80
1990-01-31 06:00:00,1.20,-0.20,0.70
1990-01-31 09:00:00,1.30,-0.10,0.40
1990-01-31 12:00:00,7.10,-1.50,2.20
1990-01-31 15:00:00,8.50,-0.40,1.10
1990-01-31 18:00:00,1.20,-0.20,0.10
1990-01-31 21:00:00,1.20,-0.20,0.10
1990-02-01 00:00:00,1.20,-0.30,0.20
1990-02-01 03:00:00,1.20,-0.50,0.10
1990-02-01 06:00:00,1.30,-0.30,0.20
1990-02-01 09:00:00,1.60,-0.30,0.10
1990-02-01 12:00:00,10.80,0.50,0.30
1990-02-01 15:00:00,10.40,0.30,0.40
1990-02-01 18:00:00,1.40,-0.40,0.30
1990-02-01 21:00:00,1.30,-2.50,2.50
1990-02-02 00:00:00,1.20,-11.60,8.30
1990-02-02 03:00:00,1.30,-24.70,7.10
1990-02-02 06:00:00,1.30,-22.10,5.60
1990-02-02 09:00:00,1.90,-21.40,2.30
1990-02-02 12:00:00,34.50,-16.10,6.80
1990-02-02 15:00:00,19.70,-23.50,3.70
1990-02-02 18:00:00,1.50,-21.00,4.30
1990-02-02 21:00:00,1.20,-5.00,7.20
1990-02-03 00:00:00,1.30,-0.20,0.40
1990-02-03 03:00:00,1.20,-0.20,0.10
1990-02-03 06:00:00,1.20,-0.30,0.10
1990-02-03 09:00:00,1.30,-0.30,0.20
1990-02-03 12:00:00,11.80,0.90,0.70
1990-02-03 15:00:00,13.50,0.70,0.70
1990-02-03 18:00:00,1.40,-0.60,0.10
1990-02-03 21:00:00,1.10,-0.70,0.50
1990-02-04 00:00:00,1.10,-2.90,1.80
1990-02-04 03:00:00,1.10,-2.20,2.20
1990-02-04 06:00:00,1.20,-4.10,2.90
1990-02-04 09:00:00,2.10,-23.80,9.40
1990-02-04 12:00:00,43.20,-31.90,6.50
1990-02-04 15:00:00,25.50,-27.10,9.80
1990-02-04 18:00:00,2.10,-19.30,10.90
1990-02-04 21:00:00,1.20,-17.20,12.80
1990-02-05 00:00:00,1.20,-30.70,9.40
1990-02-05 03:00:00,1.30,-25.30,5.90
1990-02-05 06:00:00,1.20,-6.00,7.90
1990-02-05 09:00:00,1.50,-1.20,0.40
1990-02-05 12:00:00,13.00,-0.40,3.30
1990-02-05 15:00:00,9.60,-6.30,1.90
1990-02-05 18:00:00,1.40,-2.10,1.90
1990-02-05 21:00:00,1.40,-2.50,1.10
1990-02-06 00:00:00,1.40,-2.10,0.90
1990-02-06 03:00:00,1.40,-3.60,0.40
1990-02-06 06:00:00,1.40,-1.50,1.10
1990-02-06 09:00:00,1.60,-0.90,0.40
1990-02-06 12:00:00,13.60,0.80,0.80
1990-02-06 15:00:00,15.80,0.60,1.00
1990-02-06 18:00:00,1.80,-1.00,0.30
1990-02-06 21:00:00,1.40,-1.50,0.40
1990-02-07 00:00:00,1.40,-1.70,0.50
1990-02-07 03:00:00,1.30,-3.40,1.20
1990-02-07 06:00:00,1.30,-25.40,13.10
1990-02-07 09:00:00,1.50,-14.90,12.20
1990-02-07 12:00:00,15.80,0.90,0.80
1990-02-07 15:00:00,12.10,-0.90,0.60
1990-02-07 18:00:00,1.60,-2.70,2.70
1990-02-07 21:00:00,1.20,-10.90,4.40
1990-02-08 00:00:00,1.30,-14.20,6.50
1990-02-08 03:00:00,1.20,-9.00,5.80
1990-02-08 06:00:00,1.20,-6.00,3.00
1990-02-08 09:00:00,2.90,-8.00,4.70
1990-02-08 12:00:00,77.40,3.00,10.50
1990-02-08 15:00:00,47.20,6.60,6.20
1990-02-08 18:00:00,1.80,-0.70,0.30
1990-02-08 21:00:00,1.40,-1.10,0.30
1990-02-09 00:00:00,1.30,-1.40,0.70
1990-02-09 03:00:00,1.40,-4.20,3.00
1990-02-09 06:00:00,1.40,-21.10,16.40
1990-02-09 09:00:00,2.30,-44.40,5.90
1990-02-09 12:00:00,84.00,-24.20,12.90
1990-02-09 15:00:00,41.60,-19.70,9.90
1990-02-09 18:00:00,3.00,-27.00,6.60
1990-02-09 21:00:00,1.30,-44.70,2.50
1990-02-10 00:00:00,1.30,-32.90,8.40
1990-02-10 03:00:00,1.20,-13.50,10.10
1990-02-10 06:00:00,1.20,-34.20,3.80
1990-02-10 09:00:00,2.80,-21.90,7.60
1990-02-10 12:00:00,46.30,-20.80,3.60
1990-02-10 15:00:00,35.00,-25.30,7.60
1990-02-10 18:00:00,2.20,-34.60,0.90
1990-02-10 21:00:00,1.20,-33.20,1.10
1990-02-11 00:00:00,1.20,-29.70,13.10
1990-02-11 03:00:00,1.10,-11.50,9.50
1990-02-11 06:00:00,1.20,-25.90,14.60
1990-02-11 09:00:00,3.80,-52.20,5.00
1990-02-11 12:00:00,60.80,-28.50,7.00
1990-02-11 15:00:00,38.90,-30.50,1.90
1990-02-11 18:00:00,2.70,-13.20,12.50
1990-02-11 21:00:00,1.20,2.60,1.50
1990-02-12 00:00:00,1.30,0.60,0.60
1990-02-12 03:00:00,1.30,-0.40,0.40
1990-02-12 06:00:00,1.20,-0.30,0.60
1990-02-12 09:00:00,1.70,-0.30,1.10
1990-02-12 12:00:00,31.50,-10.70,5.20
1990-02-12 15:00:00,18.20,-6.00,1.30
1990-02-12 18:00:00,2.30,-0.40,0.80
1990-02-12 21:00:00,1.30,0.30,0.40
1990-02-13 00:00:00,1.30,0.40,0.40
1990-02-13 03:00:00,1.30,0.70,0.30
1990-02-13 06:00:00,1.30,0.60,0.20
1990-02-13 09:00:00,1.90,0.00,0.70
1990-02-13 12:00:00,10.70,-6.20,2.20
1990-02-13 15:00:00,14.60,-8.70,3.50
1990-02-13 18:00:00,2.30,0.30,1.50
1990-02-13 21:00:00,1.30,0.30,0.50
1990-02-14 00:00:00,1.30,0.50,0.50
1990-02-14 03:00:00,1.30,0.30,0.30
1990-02-14 06:00:00,1.20,0.20,0.20
1990-02-14 09:00:00,2.00,-0.60,1.40
1990-02-14 12:00:00,11.40,-12.70,3.90
1990-02-14 15:00:00,7.80,-7.80,5.50
1990-02-14 18:00:00,1.80,-0.40,1.00
1990-02-14 21:00:00,1.40,0.50,0.20
1990-02-15 00:00:00,1.40,0.30,0.10
1990-02-15 03:00:00,1.40,0.60,0.30
1990-02-15 06:00:00,1.40,1.00,0.70
1990-02-15 09:00:00,2.40,-1.10,3.20
1990-02-15 12:00:00,18.00,-23.50,7.10
1990-02-15 15:00:00,15.50,-22.60,6.90
1990-02-15 18:00:00,2.30,-1.80,2.70
1990-02-15 21:00:00,1.40,-0.60,0.40
1990-02-16 00:00:00,1.30,-0.60,0.50
1990-02-16 03:00:00,1.30,1.30,1.60
1990-02-16 06:00:00,1.30,3.90,2.10
1990-02-16 09:00:00,2.50,-0.20,2.50
1990-02-16 12:00:00,34.80,-14.80,6.10
1990-02-16 15:00:00,17.60,-14.60,5.50
1990-02-16 18:00:00,2.60,0.70,2.00
1990-02-16 21:00:00,1.30,2.50,1.30
1990-02-17 00:00:00,1.30,1.10,0.60
1990-02-17 03:00:00,1.40,1.00,1.00
1990-02-17 06:00:00,1.40,5.20,2.00
1990-02-17 09:00:00,4.60,3.50,3.30
1990-02-17 12:00:00,52.70,9.80,6.90
1990-02-17 15:00:00,30.70,-4.60,8.80
1990-02-17 18:00:00,2.80,10.30,3.50
1990-02-17 21:00:00,1.20,10.70,5.80
1990-02-18 00:00:00,1.30,5.00,4.40
1990-02-18 03:00:00,1.30,1.50,2.00
1990-02-18 06:00:00,1.20,-0.50,0.80
1990-02-18 09:00:00,3.40,-0.80,0.40
1990-02-18 12:00:00,33.70,2.30,1.00
1990-02-18 15:00:00,42.00,2.60,1.40
1990-02-18 18:00:00,5.50,-4.80,3.60
1990-02-18 21:00:00,1.30,-1.50,2.30
1990-02-19 00:00:00,1.30,-0.90,0.80
1990-02-19 03:00:00,1.30,-1.00,0.40
1990-02-19 06:00:00,1.30,-1.30,0.70
1990-02-19 09:00:00,4.80,-0.60,0.50
1990-02-19 12:00:00,53.40,4.90,3.70
1990-02-19 15:00:00,78.00,2.60,8.30
1990-02-19 18:00:00,8.30,-1.20,3.00
1990-02-19 21:00:00,1.30,-0.20,0.70
1990-02-20 00:00:00,1.20,-0.60,0.10
1990-02-20 03:00:00,1.20,-0.50,0.20
1990-02-20 06:00:00,1.30,-1.10,1.90
1990-02-20 09:00:00,4.50,-14.30,9.80
1990-02-20 12:00:00,71.20,-12.80,16.20
1990-02-20 15:00:00,42.90,4.90,2.10
1990-02-20 18:00:00,4.90,-0.50,1.00
1990-02-20 21:00:00,1.40,-0.80,0.30
1990-02-21 00:00:00,1.40,-0.60,0.20
1990-02-21 03:00:00,1.30,-0.90,0.30
1990-02-21 06:00:00,1.30,-0.90,0.20
1990-02-21 09:00:00,5.90,-0.20,0.90
1990-02-21 12:00:00,90.70,12.90,5.80
1990-02-21 15:00:00,63.30,7.80,4.50
1990-02-21 18:00:00,4.80,-2.60,1.50
1990-02-21 21:00:00,1.30,-1.30,0.40
1990-02-22 00:00:00,1.30,-1.80,0.60
1990-02-22 03:00:00,1.20,-2.50,0.90
1990-02-22 06:00:00,1.20,-5.80,4.30
1990-02-22 09:00:00,22.90,0.80,6.50
1990-02-22 12:00:00,24.00,2.00,1.10
1990-02-22 15:00:00,41.80,4.10,3.90
1990-02-22 18:00:00,5.00,-16.50,11.50
1990-02-22 21:00:00,1.30,-21.70,7.40
1990-02-23 00:00:00,1.20,-6.20,2.20
1990-02-23 03:00:00,1.20,-0.60,0.60
1990-02-23 06:00:00,1.20,-0.10,0.60
1990-02-23 09:00:00,4.40,-0.60,0.70
1990-02-23 12:00:00,42.20,4.00,1.60
1990-02-23 15:00:00,38.50,3.20,2.30
1990-02-23 18:00:00,5.40,-2.50,0.80
1990-02-23 21:00:00,1.10,-1.60,0.60
1990-02-24 00:00:00,1.20,-1.70,0.50
1990-02-24 03:00:00,1.20,-2.20,1.60
1990-02-24 06:00:00,1.20,-1.80,0.70
1990-02-24 09:00:00,8.50,-1.10,1.40
1990-02-24 12:00:00,89.00,12.30,10.50
1990-02-24 15:00:00,75.40,11.00,7.10
1990-02-24 18:00:00,8.40,-1.00,1.90
1990-02-24 21:00:00,1.30,-3.40,1.50
1990-02-25 00:00:00,1.30,-5.20,2.30
1990-02-25 03:00:00,1.30,-8.80,5.90
1990-02-25 06:00:00,1.30,-27.70,14.00
1990-02-25 09:00:00,25.20,-31.20,14.20
1990-02-25 12:00:00,97.40,-15.20,7.50
1990-02-25 15:00:00,128.30,-37.50,16.60
1990-02-25 18:00:00,7.60,-34.50,1.40
1990-02-25 21:00:00,1.10,-33.30,1.50
1990-02-26 00:00:00,1.20,-33.00,4.70
1990-02-26 03:00:00,1.20,-26.10,3.30
1990-02-26 06:00:00,1.20,-20.50,4.80
1990-02-26 09:00:00,11.40,-8.60,9.10
1990-02-26 12:00:00,53.90,9.40,3.70
1990-02-26 15:00:00,42.10,3.00,3.40
1990-02-26 18:00:00,9.10,0.00,0.70
1990-02-26 21:00:00,1.20,0.40,0.20
1990-02-27 00:00:00,1.20,0.50,0.40
1990-02-27 03:00:00,1.20,0.60,0.50
1990-02-27 06:00:00,1.20,0.40,0.60
1990-02-27 09:00:00,8.90,-2.30,2.70
1990-02-27 12:00:00,44.30,-10.90,3.30
1990-02-27 15:00:00,43.70,-10.00,2.90
1990-02-27 18:00:00,5.60,-0.90,1.30
1990-02-27 21:00:00,1.30,1.80,1.40
1990-02-28 00:00:00,1.30,2.20,2.70
1990-02-28 03:00:00,1.30,5.30,3.70
1990-02-28 06:00:00,1.20,8.70,1.80
1990-02-28 09:00:00,25.30,-11.20,19.70
1990-02-28 12:00:00,128.60,-20.80,15.00
1990-02-28 15:00:00,110.90,-9.00,9.70
1990-02-28 18:00:00,11.90,-18.50,15.10
1990-02-28 21:00:00,1.60,-40.30,10.00
1990-03-01 00:00:00,1.50,-25.70,7.00
1990-03-01 03:00:00,1.50,-31.30,7.60
1990-03-01 06:00:00,1.60,-32.50,12.00
1990-03-01 09:00:00,24.40,-25.20,2.50
1990-03-01 12:00:00,108.40,-5.10,5.80
1990-03-01 15:00:00,93.40,-25.90,9.70
1990-03-01 18:00:00,14.90,-32.80,3.40
1990-03-01 21:00:00,1.40,-17.40,13.60
1990-03-02 00:00:00,1.40,-0.50,1.60
1990-03-02 03:00:00,1.30,2.50,3.30
1990-03-02 06:00:00,1.30,3.90,5.20
1990-03-02 09:00:00,13.10,-5.00,5.00
1990-03-02 12:00:00,109.40,19.50,11.80
1990-03-02 15:00:00,89.90,13.70,5.10
1990-03-02 18:00:00,28.70,-7.60,13.80
1990-03-02 21:00:00,1.60,-16.80,8.80
1990-03-03 00:00:00,1.50,-12.80,4.10
1990-03-03 03:00:00,1.50,-17.90,8.60
1990-03-03 06:00:00,1.40,-30.30,10.50
1990-03-03 09:00:00,38.00,-25.60,10.30
1990-03-03 12:00:00,187.50,2.70,3.30
1990-03-03 15:00:00,173.70,-31.30,34.80
1990-03-03 18:00:00,10.10,-39.60,8.40
1990-03-03 21:00:00,1.50,-18.70,7.00
1990-03-04 00:00:00,1.40,-0.10,2.30
1990-03-04 03:00:00,1.40,0.50,0.40
1990-03-04 06:00:00,1.40,-0.40,1.00
1990-03-04 09:00:00,13.60,0.00,2.60
1990-03-04 12:00:00,109.60,21.20,12.60
1990-03-04 15:00:00,151.60,12.50,28.90
1990-03-04 18:00:00,11.40,0.70,1.30
1990-03-04 21:00:00,1.40,-1.30,0.90
1990-03-05 00:00:00,1.40,-5.80,2.30
1990-03-05 03:00:00,1.40,-14.90,8.10
1990-03-05 06:00:00,1.30,-3.00,3.30
1990-03-05 09:00:00,12.80,-7.40,8.40
1990-03-05 12:00:00,47.40,-22.50,27.00
1990-03-05 15:00:00,58.40,6.90,2.90
1990-03-05 18:00:00,17.90,-5.20,6.50
1990-03-05 21:00:00,1.60,-34.60,18.10
1990-03-06 00:00:00,1.40,-45.90,7.20
1990-03-06 03:00:00,1.40,-33.70,1.80
1990-03-06 06:00:00,1.30,-31.30,4.70
1990-03-06 09:00:00,34.00,-0.90,4.90
1990-03-06 12:00:00,109.30,15.30,3.20
1990-03-06 15:00:00,89.30,12.50,7.30
1990-03-06 18:00:00,16.00,-4.40,3.20
1990-03-06 21:00:00,1.40,-3.70,1.40
1990-03-07 00:00:00,1.50,-7.10,6.40
1990-03-07 03:00:00,1.50,-18.60,6.00
1990-03-07 06:00:00,1.40,-40.20,2.40
1990-03-07 09:00:00,39.90,-27.40,17.80
1990-03-07 12:00:00,212.80,-8.90,9.70
1990-03-07 15:00:00,202.70,-48.90,36.00
1990-03-07 18:00:00,10.40,-38.00,1.50
1990-03-07 21:00:00,1.40,-34.70,1.50
1990-03-08 00:00:00,1.40,-15.80,10.70
1990-03-08 03:00:00,1.50,-3.50,1.70
1990-03-08 06:00:00,1.40,-2.40,1.00
1990-03-08 09:00:00,21.80,1.00,2.20
1990-03-08 12:00:00,64.40,7.60,3.30
1990-03-08 15:00:00,77.50,9.90,3.90
1990-03-08 18:00:00,18.80,-0.20,1.90
1990-03-08 21:00:00,1.40,-1.10,2.40
1990-03-09 00:00:00,1.30,1.50,1.10
1990-03-09 03:00:00,1.30,1.60,1.40
1990-03-09 06:00:00,1.40,0.80,1.00
1990-03-09 09:00:00,29.30,-5.90,4.80
1990-03-09 12:00:00,138.70,12.50,9.40
1990-03-09 15:00:00,132.00,1.40,9.50
1990-03-09 18:00:00,16.30,-0.90,2.60
1990-03-09 21:00:00,1.30,-5.40,2.80
1990-03-10 00:00:00,1.30,-11.30,6.00
1990-03-10 03:00:00,1.30,-6.60,3.20
1990-03-10 06:00:00,1.30,-8.50,5.00
1990-03-10 09:00:00,71.20,1.80,11.60
1990-03-10 12:00:00,225.60,-11.20,10.00
1990-03-10 15:00:00,185.40,-33.10,31.00
1990-03-10 18:00:00,15.80,-29.00,7.00
1990-03-10 21:00:00,1.30,-37.30,1.70
1990-03-11 00:00:00,1.40,-39.30,1.00
1990-03-11 03:00:00,1.50,-39.50,2.50
1990-03-11 06:00:00,1.50,-31.50,3.90
1990-03-11 09:00:00,53.00,-13.80,22.70
1990-03-11 12:00:00,229.00,1.80,9.90
1990-03-11 15:00:00,224.20,-42.00,38.50
1990-03-11 18:00:00,13.00,-38.80,0.60
1990-03-11 21:00:00,1.40,-24.70,18.50
1990-03-12 00:00:00,1.50,-14.00,10.90
1990-03-12 03:00:00,1.40,-1.80,3.00
1990-03-12 06:00:00,1.50,-6.90,6.70
1990-03-12 09:00:00,32.40,-8.70,6.60
1990-03-12 12:00:00,98.70,-20.10,23.90
1990-03-12 15:00:00,144.10,-110.80,37.30
1990-03-12 18:00:00,13.10,-42.60,1.50
1990-03-12 21:00:00,1.50,-44.70,3.00
1990-03-13 00:00:00,1.50,-50.30,2.90
1990-03-13 03:00:00,1.40,-55.70,1.70
1990-03-13 06:00:00,1.50,-58.30,3.70
1990-03-13 09:00:00,55.90,-42.50,27.10
1990-03-13 12:00:00,243.80,-1.20,5.10
1990-03-13 15:00:00,220.80,-33.80,37.00
1990-03-13 18:00:00,31.10,-38.20,5.50
1990-03-13 21:00:00,1.30,-24.20,7.00
1990-03-14 00:00:00,1.40,-42.50,4.10
1990-03-14 03:00:00,1.50,-36.40,4.70
1990-03-14 06:00:00,1.50,-31.90,3.80
1990-03-14 09:00:00,60.70,-11.00,19.30
1990-03-14 12:00:00,210.80,14.60,9.80
1990-03-14 15:00:00,163.80,0.90,7.90
1990-03-14 18:00:00,37.90,-5.90,6.70
1990-03-14 21:00:00,1.50,-7.20,7.60
1990-03-15 00:00:00,1.30,-8.30,11.30
1990-03-15 03:00:00,1.40,-5.70,7.70
1990-03-15 06:00:00,1.50,-5.20,3.50
1990-03-15 09:00:00,14.50,-9.40,10.40
1990-03-15 12:00:00,77.10,-5.80,22.60
1990-03-15 15:00:00,109.40,17.10,5.90
1990-03-15 18:00:00,21.80,1.90,2.30
1990-03-15 21:00:00,1.50,-1.00,0.60
1990-03-16 00:00:00,1.40,-0.70,0.60
1990-03-16 03:00:00,1.40,-1.30,0.40
1990-03-16 06:00:00,1.50,-2.00,0.60
1990-03-16 09:00:00,96.30,12.70,11.40
1990-03-16 12:00:00,218.90,33.00,2.70
1990-03-16 15:00:00,125.20,20.40,9.90
1990-03-16 18:00:00,15.60,0.40,1.90
1990-03-16 21:00:00,1.30,-3.20,2.30
1990-03-17 00:00:00,1.20,-2.80,1.60
1990-03-17 03:00:00,1.20,-3.40,1.60
1990-03-17 06:00:00,1.50,-4.30,1.80
1990-03-17 09:00:00,121.10,17.10,30.20
1990-03-17 12:00:00,287.80,61.70,16.90
1990-03-17 15:00:00,125.00,14.90,13.00
1990-03-17 18:00:00,28.70,-5.10,6.20
1990-03-17 21:00:00,1.40,-27.80,8.60
1990-03-18 00:00:00,1.30,-1.00,1.80
1990-03-18 03:00:00,1.30,0.00,1.30
1990-03-18 06:00:00,1.40,-1.20,0.60
1990-03-18 09:00:00,69.20,9.50,11.40
1990-03-18 12:00:00,196.10,30.10,7.50
1990-03-18 15:00:00,119.90,16.10,9.20
1990-03-18 18:00:00,23.00,0.10,2.60
1990-03-18 21:00:00,1.50,-4.10,1.00
1990-03-19 00:00:00,1.40,-3.70,2.20
1990-03-19 03:00:00,1.30,-10.00,5.00
1990-03-19 06:00:00,1.60,-4.40,2.70
1990-03-19 09:00:00,123.30,17.60,13.70
1990-03-19 12:00:00,165.90,15.40,6.00
1990-03-19 15:00:00,143.30,15.20,4.40
1990-03-19 18:00:00,42.80,-5.00,5.50
1990-03-19 21:00:00,1.30,-8.30,0.80
1990-03-20 00:00:00,1.20,-3.10,2.30
1990-03-20 03:00:00,1.30,-2.50,1.20
1990-03-20 06:00:00,1.40,-0.30,0.80
1990-03-20 09:00:00,15.60,-14.20,11.60
1990-03-20 12:00:00,116.50,-9.00,16.40
1990-03-20 15:00:00,261.60,-18.80,45.00
1990-03-20 18:00:00,28.70,-39.20,6.60
1990-03-20 21:00:00,1.70,-50.10,3.60
1990-03-21 00:00:00,1.30,-47.50,2.90
1990-03-21 03:00:00,1.30,-41.80,0.80
1990-03-21 06:00:00,1.90,-39.70,1.00
1990-03-21 09:00:00,79.70,-7.40,37.90
1990-03-21 12:00:00,233.10,33.80,12.20
1990-03-21 15:00:00,204.00,26.70,14.00
1990-03-21 18:00:00,40.80,4.90,5.10
1990-03-21 21:00:00,1.80,-0.50,0.30
1990-03-22 00:00:00,1.60,-0.40,0.40
1990-03-22 03:00:00,1.30,-1.50,1.20
1990-03-22 06:00:00,1.90,-1.00,1.50
1990-03-22 09:00:00,64.50,8.70,5.80
1990-03-22 12:00:00,225.80,37.40,13.30
1990-03-22 15:00:00,278.60,-3.90,47.30
1990-03-22 18:00:00,34.30,-7.50,9.80
1990-03-22 21:00:00,1.50,0.00,0.40
1990-03-23 00:00:00,1.30,-0.70,0.90
1990-03-23 03:00:00,1.30,-0.50,0.50
1990-03-23 06:00:00,1.70,-0.20,0.80
1990-03-23 09:00:00,41.10,-15.20,10.90
1990-03-23 12:00:00,196.70,26.80,13.30
1990-03-23 15:00:00,205.10,-2.20,22.90
1990-03-23 18:00:00,54.00,-36.50,6.60
1990-03-23 21:00:00,2.20,-39.50,2.30
1990-03-24 00:00:00,1.30,-37.20,0.90